sat.trackr.live / text

‹ back to catalog

STARLINK-11433 [DTC]

NORAD 62008 · 2024-213A

PAYLOAD ACTIVE UNKNOWN

§ Identity

Operator
Country
US
Launch date
2024-11-18
Launch site
AFWTR
Launch vehicle
Mass (kg)
RCS (m²)

Purposes: comms

External: N2YO · Heavens-Above · Gunter

§ Orbital elements

Epoch: 2026-09-21T21:27:21.573216Z

Period
91.73 min
Inclination
53.1587°
Eccentricity
0.0004288
Mean motion
15.69828835 rev/d
Perigee alt
356.5 km
Apogee alt
362.3 km
Semi-major
6,737.5 km
B*
1.3198e-3
RAAN
153.8699°
Arg perigee
162.7418°
Mean anomaly
197.3747°
Rev number
10,573

§ Raw data

STARLINK-11433 [DTC]1 62008U 24213A   26264.89399969  .00163344  00000+0  13198-2 0  99942 62008  53.1587 153.8699 0004288 162.7418 197.3747 15.69828835105738

JSON: /api/v1/satellites/62008 · /tle

For live sub-satellite position, see the globe view (requires WebGL).

§ Visibility from observer

Set your observer location to see the next 7 days of passes ≥ 10°. The values pass through the URL so the page stays shareable.

No JS? Fill the form by hand. The geolocation button needs JavaScript.